Terminal Aerodrome Forecast
Issued by NWS

Home | Current Version | Previous Version | Graphics & Text | Print | Product List | Glossary On
Versions: 1 2 3 4 5 6 7 8 9 10 11 12
000
FTUS41 KCLE 301124
TAFFDY
TAF
KFDY 301124Z 3012/3112 27007KT P6SM SKC
     FM301400 27014G20KT P6SM SKC
     FM310000 25006KT P6SM SKC=

USA.gov is the U.S. government's official web portal to all federal, state and local government web resources and services.